Regional Weather Roundup
Issued by NWS

Home | Current Version | Previous Version | Text Only | Print | Product List | Glossary Off
Versions: 1 2 3 4 5 6 7 8 9 10 11 12 13 14 15 16 17 18 19 20 21 22 23 24 25 26 27 28 29 30 31 32 33 34 35 36 37 38 39 40 41 42 43 44 45 46 47 48 49 50

000
ASUS43 KOAX 132302
RWRNE

WEATHER ROUNDUP FOR NEBRASKA
NATIONAL WEATHER SERVICE OMAHA NE
600 PM CDT SUN JUL 13 2014

NOTES: SATELLITE DATA IS BEING USED TO AUGMENT CLOUD COVER ABOVE
       12000 FEET.
       "FAIR" INDICATES FEW OR NO CLOUDS BELOW 12,000 FEET WITH NO
       SIGNIFICANT WEATHER AND/OR OBSTRUCTIONS TO VISIBILITY.

  * THESE STATIONS DO NOT REPORT WEATHER SUCH AS RAIN...SNOW OR FOG.

NEZ001>004-019>022-054>056-140000-
NEBRASKA PANHANDLE

CITY           SKY/WX    TMP DP  RH WIND       PRES   REMARKS
SCOTTSBLUFF    MOSUNNY   87  56  34 NW9       30.16S
ALLIANCE       PTSUNNY   80  57  45 W8        30.15S
CHADRON        MOSUNNY   86  57  37 NE9       30.09F
KIMBALL        MOSUNNY   78  55  46 S7        30.23R
SIDNEY         CLOUDY    71  63  75 NE9       30.23R
$$

NEZ057>060-069>072-079>082-140000-
SOUTHWEST NEBRASKA

CITY           SKY/WX    TMP DP  RH WIND       PRES   REMARKS
NORTH PLATTE   MOSUNNY   89  51  27 VRB3      30.08F
IMPERIAL       PTSUNNY   75  62  64 SW10      30.15R
LEXINGTON      SUNNY     88  56  33 CALM      30.06F
MCCOOK         CLOUDY    86  60  41 S7        30.08F
OGALLALA       MOSUNNY   85  47  26 NE8       30.11F
$$

NEZ005>010-023>029-035>040-094-140000-
NORTH CENTRAL NEBRASKA

CITY           SKY/WX    TMP DP  RH WIND       PRES   REMARKS
VALENTINE      SUNNY     85  53  33 N10       30.08F
AINSWORTH      SUNNY     83  50  31 NW6       30.08F
BROKEN BOW     SUNNY     86  60  41 N8        30.07F
O`NEILL        PTSUNNY   85  54  34 W6        30.04F
ORD            MOSUNNY   84  62  47 N5        30.03F
THEDFORD       SUNNY     86  55  34 N7        30.10S
$$

NEZ041-046>049-061>064-073>077-083>087-140000-
SOUTH CENTRAL NEBRASKA

CITY           SKY/WX    TMP DP  RH WIND       PRES   REMARKS
GRAND ISLAND   MOSUNNY   89  64  43 N10       30.03F HX  90
AURORA         PTSUNNY   86  66  51 NW6       30.02F
HASTINGS       SUNNY     87  58  37 NW6       30.04F
HEBRON         SUNNY     88  64  45 CALM      30.02F
HOLDREGE       SUNNY     85  56  36 CALM      30.06F
KEARNEY *      SUNNY     88  57  35 NW5       30.05F
YORK           SUNNY     84  66  54 N7        30.02F
$$

NEZ011>018-030>034-042>045-140000-
NORTHEAST NEBRASKA

CITY           SKY/WX    TMP DP  RH WIND       PRES   REMARKS
NORFOLK        MOSUNNY   84  60  44 NW9       30.00F
ALBION         SUNNY     84  61  46 N7        30.03S
BLAIR          CLOUDY    82  57  41 NW3       30.00S
FREMONT        MOSUNNY   85  67  54 NW7       30.00S
TEKAMAH        SUNNY     86  63  45 NW7       29.98F
WAYNE          MOSUNNY   83  66  56 W7        30.00F
$$

NEZ050>053-065>068-078-088>093-140000-
SOUTHEAST NEBRASKA

CITY           SKY/WX    TMP DP  RH WIND       PRES   REMARKS
LINCOLN        RAIN      77  65  66 W12       30.01S
OMAHA EPPLEY   PTSUNNY   83  66  56 CALM      29.98S
BEATRICE       SUNNY     84  66  54 W6        30.00F
FALLS CITY     SUNNY     87  68  52 CALM      29.97F HX  90
NEBRASKA CITY  MOSUNNY   86  62  45 CALM      29.98F
PLATTSMOUTH    CLOUDY    84  66  55 CALM      29.98F
$$

NEZ044-045-051>053-067-140000-
OMAHA AREA

CITY           SKY/WX    TMP DP  RH WIND       PRES   REMARKS
OMAHA EPPLEY   PTSUNNY   83  66  56 CALM      29.98S
BLAIR          CLOUDY    82  57  41 NW3       30.00S
FREMONT        MOSUNNY   85  67  54 NW7       30.00S
MILLARD        MOSUNNY   83  66  56 CALM      29.98S
OFFUTT AFB     DRIZZLE   83  68  60 NW10G22   29.98R
PLATTSMOUTH    CLOUDY    84  66  55 CALM      29.98F
WAHOO          FAIR      85  67  56 N3        30.00S
$$


USA.gov is the U.S. government's official web portal to all federal, state and local government web resources and services.